Location: Bryzozowice
(50.3667°N, 18.9667°E)
Time: 12:37:05
(UTC+00:00)

Cosmos 1825 Rocket - Pass Details

Date: 24 January 2020
Orbit: 604 x 630 km, 82.5° (Epoch: 27 February)

Event Time Altitude Azimuth Distance (km) Brightness Sun altitude
Rises 16:59:35 0° 192° (SSW) 2,866 7.3 -15.2°
Reaches altitude 10° 17:01:48 10° 193° (SSW) 1,962 6.4 -15.6°
Maximum altitude 17:06:08 79° 280° (W) 626 3.6 -16.2°
Drops below altitude 10° 17:10:30 10° 8° (N) 1,968 6.0 -16.9°
Sets 17:12:44 0° 10° (N) 2,875 6.8 -17.3°
